Location: Risskov
(56.1972°N, 10.2480°E)
Time: 22:57:27
(UTC+00:00)

ERS-1 Rocket - Pass Details

Date: 05 July 2020
Orbit: 752 x 758 km, 98.5° (Epoch: 03 August)

Event Time Altitude Azimuth Distance (km) Brightness Sun altitude
Exits shadow 20:56:51 - 174° (S) 2,941 5.5 -5.2°
Reaches altitude 10° 20:58:30 10° 177° (S) 2,287 4.9 -5.4°
Maximum altitude 21:03:29 61° 258° (WSW) 866 3.4 -5.7°
Drops below altitude 10° 21:08:30 10° 339° (NNW) 2,301 7.2 -6.1°
Sets 21:10:51 0° 343° (NNW) 3,230 8.2 -6.3°
